Flag for Antigua and Barbuda Weather past 2 weeks in Saint John's, Antigua and Barbuda

84 °F

Passing clouds.

Feels Like: 92 °F
Forecast: N/A
Wind: 8 mph from Southeast

Location: Vc Bird International Antigua Airport

Current Time: Oct 6, 2015 at 6:53:59 PM

Latest Report: Oct 6, 2015 at 6:00 PM

Visibility: N/A

Pressure: 29.95 "Hg

Humidity: 74%

Dew point: 75 °F

Location of Saint John'sLocation

Historic Weather in Saint John's — Graph


Saint John's temperature yesterday

Maximum temperature yesterday: 88 °F (at 10:00 AM)
Minimum temperature yesterday: 81 °F (at 3:00 AM)
Average temperature yesterday: 84 °F

Past Weeks' High & Low Weather Summary

High91 °F (Sep 30, 12:00 PM)94% (Sep 27, 5:00 AM)30.04 "Hg (Sep 27, 5:00 AM)
Low77 °F (Sep 22, 4:00 AM)49% (Sep 30, 12:00 PM)29.77 "Hg (Oct 1, 2:00 AM)
Average83 °F75%29.89 "Hg
* Reported Sep 21 5:00 PM — Oct 6 5:00 PM, Saint John's, Weather by CustomWeather, © 2015

Note: Actual official high and low records may vary slightly from our data, if they occured in-between our weather recording intervals... More about our weather records


Saint John's weather history for previous 24 hours

Time TempWeatherWind HumidityBarometerVisibility
5:00 PM
Tue, Oct 6
86 °FPassing clouds.10 mph70%29.95 "HgN/A
4:00 PM86 °FScattered clouds.12 mph70%29.95 "HgN/A
3:00 PM88 °FScattered clouds.12 mph66%29.95 "HgN/A
2:00 PM90 °FScattered clouds.12 mph63%29.98 "HgN/A
1:00 PM90 °FScattered clouds.13 mph63%29.98 "HgN/A
12:00 PM90 °FScattered clouds.13 mph63%30.01 "HgN/A
11:00 AM88 °FScattered clouds.13 mph70%30.01 "HgN/A
10:00 AM88 °FScattered clouds.15 mph66%30.01 "HgN/A
9:00 AM88 °FScattered clouds.13 mph66%30.01 "HgN/A
7:00 AM84 °FPassing clouds.14 mph74%29.98 "HgN/A
6:00 AM84 °FPassing clouds.10 mph74%29.98 "HgN/A
5:00 AM82 °FPassing clouds.9 mph79%29.98 "HgN/A
4:00 AM84 °FPassing clouds.12 mph74%29.95 "HgN/A
3:00 AM82 °FPassing clouds.10 mph84%29.95 "HgN/A
2:00 AM84 °FPassing clouds.12 mph74%29.98 "HgN/A
1:00 AM84 °FPassing clouds.9 mph74%30.01 "HgN/A
12:00 AM84 °FPassing clouds.12 mph74%30.01 "HgN/A
11:00 PM
Mon, Oct 5
84 °FPassing clouds.12 mph74%30.01 "HgN/A
10:00 PM84 °FPassing clouds.13 mph79%30.04 "HgN/A
9:00 PM84 °FPassing clouds.12 mph79%30.04 "HgN/A
8:00 PM84 °FPassing clouds.10 mph74%30.01 "HgN/A
7:00 PM84 °FPassing clouds.9 mph74%30.01 "HgN/A
6:00 PM84 °FPassing clouds.9 mph79%29.98 "HgN/A
Weather by CustomWeather, © 2015

See weather overviewHow to use our weather pages